1518066000.58,867,7.75,72594.5,-7.93,-8.37,-8.33,0,*50
1518066001.77,868,7.75,72594.0,-7.93,-8.37,-8.37,0,*5B
1518066002.95,869,7.75,72592.8,-7.93,-8.37,-8.33,0,*5E
1518066004.16,870,7.75,72592.8,-7.95,-8.37,-8.33,0,*50
1518066005.34,871,7.75,72592.8,-7.93,-8.37,-8.33,0,*57
1518066006.51,872,7.75,72594.0,-7.93,-8.37,-8.33,0,*54
1518066007.7,873,7.75,72592.8,-7.93,-8.45,-8.37,0,*54
1518066008.92,874,7.75,72596.8,-7.95,-8.37,-8.37,0,*50
1518066010.1,875,7.75,72592.0,-7.93,-8.37,-8.33,0,*53
1518066011.3,876,7.75,72592.0,-7.91,-8.33,-8.33,0,*56
1518066012.48,877,7.75,72594.0,-7.93,-8.37,-8.33,0,*51
1518066013.69,878,7.75,72592.0,-7.95,-8.37,-8.37,0,*5C
1518066014.87,879,7.75,72594.8,-7.93,-8.37,-8.33,0,*5F
1518066016.05,880,7.75,72594.3,-7.93,-8.37,-8.33,0,*59
1518066017.24,881,7.75,72592.3,-7.93,-8.37,-8.37,0,*5C
1518066018.43,882,7.69,72590.3,-7.93,-8.37,-8.37,0,*5F
1518066019.61,883,7.75,72594.8,-7.93,-8.33,-8.37,0,*5A
1518066020.8,884,7.75,72596.0,-7.93,-8.45,-8.37,0,*5C
1518066021.99,885,7.75,72594.5,-7.93,-8.37,-8.37,0,*58
1518066023.18,886,7.75,72592.3,-7.93,-8.37,-8.37,0,*5B
1518066024.36,887,7.75,72598.5,-7.93,-8.37,-8.33,0,*5E
1518066025.53,888,7.75,72594.5,-7.93,-8.37,-8.33,0,*51
1518066026.71,889,7.75,72598.3,-7.93,-8.33,-8.33,0,*54
1518066027.89,890,7.75,72592.5,-7.93,-8.33,-8.37,0,*58
1518066029.06,891,7.75,72592.3,-7.93,-8.33,-8.33,0,*5D
1518066030.24,892,7.75,72594.3,-7.93,-8.45,-8.33,0,*5F
1518066031.42,893,7.75,72598.3,-7.93,-8.37,-8.45,0,*5A
1518066032.6,894,7.75,72598.0,-7.93,-8.37,-8.33,0,*5C
1518066033.77,895,7.75,72592.3,-7.93,-8.33,-8.33,0,*59
1518066034.95,896,7.75,72592.5,-7.93,-8.41,-8.33,0,*5F
1518066036.13,897,7.75,72594.3,-7.93,-8.45,-8.33,0,*5A
1518066037.31,898,7.75,72594.3,-7.93,-8.33,-8.37,0,*50
1518066038.49,899,7.75,72594.0,-7.93,-8.37,-8.33,0,*51
1518066039.68,900,7.75,72596.5,-7.93,-8.37,-8.37,0,*54
1518066040.86,901,7.75,72596.3,-7.93,-8.33,-8.37,0,*51
1518066042.07,902,7.75,72594.0,-7.91,-8.29,-8.33,0,*5F
1518066043.25,903,7.69,72594.0,-7.93,-8.37,-8.37,0,*57
1518066044.43,904,7.75,72594.0,-7.93,-8.37,-8.33,0,*54
1518066045.61,905,7.75,72596.3,-7.93,-8.33,-8.37,0,*55
1518066046.82,906,7.75,72592.8,-7.91,-8.33,-8.33,0,*50
1518066048.01,907,7.75,72594.0,-7.93,-8.37,-8.37,0,*53
1518066049.21,908,7.75,72596.3,-7.91,-8.29,-8.29,0,*5E
1518066050.38,909,7.75,72594.8,-7.93,-8.33,-8.33,0,*5D
1518066051.57,910,7.75,72592.8,-7.93,-8.33,-8.37,0,*51
1518066052.75,911,7.75,72592.3,-7.93,-8.37,-8.37,0,*54
1518066053.93,912,7.75,72598.0,-7.93,-8.33,-8.33,0,*57
1518066055.13,913,7.75,72596.5,-7.91,-8.33,-8.33,0,*54
1518066056.33,914,7.75,72594.3,-7.91,-8.33,-8.41,0,*56
1518066057.5,915,7.75,72592.3,-7.93,-8.33,-8.33,0,*50
1518066058.68,916,7.75,72596.8,-7.93,-8.29,-8.33,0,*58
1518066059.88,917,7.75,72592.0,-7.91,-8.33,-8.29,0,*5B
1518066061.09,918,7.75,72592.5,-7.91,-8.33,-8.33,0,*5F
1518066062.29,919,7.75,72596.3,-7.91,-8.33,-8.33,0,*5E
1518066063.49,920,7.75,72592.8,-7.91,-8.29,-8.33,0,*5F
1518066064.69,921,7.75,72596.3,-7.91,-8.33,-8.33,0,*55
1518066065.87,922,7.75,72596.0,-7.93,-8.33,-8.37,0,*50
1518066067.08,923,7.75,72594.8,-7.91,-8.33,-8.33,0,*57
1518066068.27,924,7.75,72594.0,-7.93,-8.37,-8.37,0,*52
1518066069.47,925,7.75,72596.8,-7.91,-8.33,-8.29,0,*5A
1518066070.67,926,7.75,72598.3,-7.91,-8.33,-8.33,0,*52
1518066071.88,927,7.75,72594.0,-7.91,-8.33,-8.29,0,*58
1518066073.09,928,7.75,72592.8,-7.91,-8.45,-8.41,0,*58
1518066074.29,929,7.75,72594.5,-7.91,-8.29,-8.33,0,*56
1518066075.51,930,7.75,72592.0,-7.91,-8.41,-8.29,0,*5B
1518066076.71,931,7.69,72590.5,-7.91,-8.29,-8.29,0,*54
1518066077.92,932,7.75,72594.0,-7.91,-8.33,-8.33,0,*57
1518066079.12,933,7.75,72592.0,-7.91,-8.33,-8.33,0,*56
1518066080.33,934,7.75,72592.8,-7.91,-8.29,-8.29,0,*51
1518066081.53,935,7.75,72592.3,-7.91,-8.41,-8.33,0,*55
1518066082.74,936,7.69,72594.0,-7.91,-8.33,-8.33,0,*53
1518066083.94,937,7.75,72592.3,-7.91,-8.29,-8.33,0,*59
1518066085.12,938,7.75,72596.5,-7.89,-8.33,-8.33,0,*54
1518066086.32,939,7.75,72596.8,-7.91,-8.33,-8.33,0,*5C
1518066087.52,940,7.75,72592.0,-7.91,-8.33,-8.33,0,*52
1518066088.72,941,7.75,72592.5,-7.91,-8.33,-8.33,0,*53
1518066089.89,942,7.75,72594.5,-7.93,-8.33,-8.33,0,*52
1518066091.09,943,7.75,72592.3,-7.91,-8.33,-8.33,0,*51
1518066092.29,944,7.75,72596.3,-7.91,-8.33,-8.33,0,*56
1518066093.5,945,7.75,72596.5,-7.91,-8.29,-8.29,0,*57
1518066094.7,946,7.75,72594.3,-7.91,-8.33,-8.33,0,*54
1518066095.91,947,7.75,72596.0,-7.91,-8.33,-8.29,0,*5E
1518066097.09,948,7.75,72592.8,-7.89,-8.29,-8.33,0,*58
1518066098.29,949,7.75,72596.5,-7.91,-8.33,-8.33,0,*5B
1518066099.5,950,7.75,72594.0,-7.91,-8.29,-8.29,0,*53
1518066100.7,951,7.69,72590.5,-7.91,-8.33,-8.33,0,*52
1518066101.9,952,7.75,72596.3,-7.91,-8.33,-8.41,0,*54
1518066103.11,953,7.69,72588.8,-7.91,-8.33,-8.29,0,*5B
1518066104.31,954,7.75,72594.5,-7.91,-8.33,-8.33,0,*57
1518066105.52,955,7.75,72594.8,-7.91,-8.33,-8.29,0,*5D
1518066106.69,956,7.75,72596.0,-7.89,-8.33,-8.33,0,*5C
1518066107.87,957,7.75,72594.3,-7.89,-8.33,-8.29,0,*56
1518066109.04,958,7.75,72594.0,-7.89,-8.33,-8.33,0,*52
1518066110.22,959,7.75,72594.0,-7.89,-8.33,-8.29,0,*58
1518066111.39,960,7.75,72598.3,-7.89,-8.33,-8.33,0,*59
1518066112.57,961,7.75,72592.0,-7.89,-8.33,-8.33,0,*58
1518066113.74,962,7.75,72594.3,-7.89,-8.33,-8.33,0,*5B
1518066114.92,963,7.75,72594.5,-7.89,-8.29,-8.33,0,*51
1518066116.1,964,7.75,72598.8,-7.89,-8.33,-8.33,0,*5D
1518066117.28,965,7.75,72596.3,-7.89,-8.29,-8.29,0,*5C
1518066118.45,966,7.75,72594.8,-7.89,-8.33,-8.33,0,*5F
1518066119.64,967,7.75,72594.3,-7.89,-8.41,-8.29,0,*50
1518066120.82,968,7.75,72592.3,-7.89,-8.33,-8.29,0,*5A
1518066121.99,969,7.75,72592.8,-7.89,-8.33,-8.29,0,*5B
1518066123.17,970,7.75,72594.3,-7.89,-8.33,-8.33,0,*58
1518066124.35,971,7.75,72592.0,-7.89,-8.33,-8.29,0,*52
1518066125.52,972,7.75,72594.5,-7.89,-8.33,-8.33,0,*5A
1518066126.73,973,7.75,72592.5,-7.85,-8.25,-8.29,0,*5B
1518066127.91,974,7.75,72594.3,-7.89,-8.33,-8.33,0,*5C
1518066129.09,975,7.75,72590.8,-7.89,-8.29,-8.33,0,*56
1518066130.26,976,7.75,72592.3,-7.89,-8.33,-8.29,0,*55
1518066131.44,977,7.75,72594.5,-7.89,-8.33,-8.33,0,*5F
1518066132.61,978,7.75,72594.8,-7.89,-8.33,-8.33,0,*50
1518066133.8,979,7.75,72594.5,-7.89,-8.29,-8.29,0,*51
1518066134.97,980,7.75,72592.0,-7.89,-8.33,-8.33,0,*57
1518066136.18,981,7.75,72592.8,-7.85,-8.29,-8.29,0,*5A
1518066137.36,982,7.75,72596.3,-7.89,-8.33,-8.29,0,*5E
1518066138.53,983,7.75,72594.8,-7.89,-8.33,-8.33,0,*54
1518066139.71,984,7.75,72594.3,-7.89,-8.33,-8.29,0,*58
1518066140.92,985,7.75,72592.5,-7.85,-8.25,-8.29,0,*52
1518066142.1,986,7.75,72592.8,-7.89,-8.33,-8.33,0,*51
1518066143.27,987,7.75,72594.5,-7.89,-8.33,-8.33,0,*50
1518066144.48,988,7.75,72594.3,-7.85,-8.29,-8.29,0,*53
1518066145.69,989,7.75,72596.3,-7.85,-8.29,-8.25,0,*5E
1518066146.87,990,7.75,72592.5,-7.89,-8.33,-8.29,0,*5D
1518066148.04,991,7.75,72594.8,-7.89,-8.33,-8.33,0,*57
1518066149.22,992,7.75,72594.0,-7.89,-8.33,-8.41,0,*51
1518066150.43,993,7.75,72594.8,-7.85,-8.29,-8.25,0,*55
1518066151.64,994,7.75,72596.0,-7.85,-8.29,-8.29,0,*5E
1518066152.85,995,7.75,72592.8,-7.85,-8.25,-8.25,0,*5F
1518066154.07,996,7.75,72594.0,-7.85,-8.25,-8.25,0,*5C
1518066155.28,997,7.75,72592.5,-7.85,-8.29,-8.29,0,*5D
1518066156.49,998,7.75,72592.3,-7.85,-8.29,-8.29,0,*52
1518066157.69,999,7.75,72594.0,-7.85,-8.29,-8.29,0,*53
1518066158.88,1000,7.75,72594.3,-7.89,-8.41,-8.33,0,*62
1518066160.1,1001,7.75,72592.8,-7.85,-8.37,-8.25,0,*69
1518066161.32,1002,7.75,72594.8,-7.85,-8.29,-8.29,0,*69
1518066162.53,1003,7.75,72598.8,-7.85,-8.29,-8.25,0,*64
1518066163.75,1004,7.75,72592.8,-7.85,-8.29,-8.29,0,*6F
1518066164.96,1005,7.75,72596.3,-7.85,-8.29,-8.25,0,*62
1518066166.15,1006,7.69,72592.0,-7.89,-8.25,-8.25,0,*61
1518066167.37,1007,7.75,72594.8,-7.85,-8.29,-8.29,0,*6C
1518066168.55,1008,7.75,72594.5,-7.89,-8.33,-8.33,0,*6F
1518066169.76,1009,7.75,72598.3,-7.85,-8.29,-8.29,0,*62
1518066170.94,1010,7.75,72594.5,-7.89,-8.33,-8.33,0,*66
1518066172.16,1011,7.75,72592.3,-7.85,-8.29,-8.25,0,*67
1518066173.38,1012,7.75,72594.5,-7.85,-8.25,-8.29,0,*64
1518066174.59,1013,7.75,72594.0,-7.85,-8.25,-8.25,0,*69
1518066175.81,1014,7.75,72596.3,-7.85,-8.29,-8.25,0,*62
1518066177.0,1015,7.69,72592.5,-7.89,-8.41,-8.29,0,*6D
1518066178.22,1016,7.75,72594.8,-7.85,-8.37,-8.25,0,*6F
1518066179.44,1017,7.75,72594.5,-7.85,-8.25,-8.29,0,*61
1518066180.66,1018,7.75,72596.8,-7.85,-8.25,-8.25,0,*62
1518066181.87,1019,7.75,72594.3,-7.85,-8.29,-8.29,0,*63
1518066183.09,1020,7.75,72592.8,-7.85,-8.29,-8.25,0,*65
1518066184.3,1021,7.75,72596.8,-7.85,-8.29,-8.29,0,*68
1518066185.49,1022,7.75,72598.8,-7.89,-8.29,-8.25,0,*6B
1518066186.71,1023,7.75,72596.0,-7.85,-8.25,-8.25,0,*6A
1518066187.92,1024,7.75,72594.3,-7.85,-8.29,-8.25,0,*61
1518066189.14,1025,7.75,72594.8,-7.85,-8.29,-8.29,0,*6C
1518066190.35,1026,7.75,72592.8,-7.85,-8.25,-8.33,0,*68
1518066191.57,1027,7.75,72594.8,-7.85,-8.29,-8.29,0,*6E
1518066192.78,1028,7.75,72596.5,-7.85,-8.29,-8.29,0,*61
1518066194.0,1029,7.75,72598.5,-7.85,-8.29,-8.29,0,*60
1518066195.21,1030,7.75,72596.3,-7.85,-8.29,-8.29,0,*68
1518066196.43,1031,7.75,72596.8,-7.85,-8.29,-8.29,0,*69
1518066197.64,1032,7.75,72596.3,-7.85,-8.29,-8.29,0,*6A
1518066198.86,1033,7.75,72598.8,-7.85,-8.29,-8.29,0,*6B
1518066200.08,1034,7.75,72596.3,-7.85,-8.25,-8.25,0,*6C
1518066201.29,1035,7.75,72596.5,-7.85,-8.29,-8.29,0,*6D
1518066202.51,1036,7.75,72596.8,-7.85,-8.29,-8.25,0,*62
1518066203.7,1037,7.75,72596.5,-7.83,-8.25,-8.25,0,*69
1518066204.9,1038,7.75,72598.3,-7.83,-8.29,-8.25,0,*6A
1518066206.09,1039,7.75,72596.0,-7.83,-8.29,-8.25,0,*6B
1518066207.29,1040,7.75,72594.0,-7.83,-8.29,-8.29,0,*69
1518066208.49,1041,7.75,72598.3,-7.83,-8.29,-8.25,0,*64
1518066209.68,1042,7.75,72596.8,-7.83,-8.29,-8.25,0,*67
1518066210.88,1043,7.75,72592.3,-7.83,-8.37,-8.29,0,*65
1518066212.07,1044,7.75,72598.5,-7.83,-8.29,-8.29,0,*6D
1518066213.29,1045,7.75,72592.3,-7.85,-8.25,-8.29,0,*66
1518066214.51,1046,7.69,72592.3,-7.85,-8.29,-8.29,0,*69
1518066215.72,1047,7.75,72596.5,-7.85,-8.29,-8.25,0,*64
1518066216.94,1048,7.75,72596.3,-7.85,-8.25,-8.25,0,*67
1518066218.14,1049,7.75,72598.3,-7.83,-8.37,-8.29,0,*6F
1518066219.34,1050,7.75,72596.0,-7.83,-8.29,-8.25,0,*64
1518066220.53,1051,7.75,72592.5,-7.83,-8.29,-8.25,0,*65
1518066221.73,1052,7.69,72594.8,-7.83,-8.29,-8.25,0,*66
1518066222.92,1053,7.75,72598.3,-7.83,-8.29,-8.29,0,*6B
1518066224.12,1054,7.75,72592.5,-7.83,-8.29,-8.29,0,*6C
1518066225.31,1055,7.75,72598.3,-7.83,-8.29,-8.29,0,*6D
1518066226.51,1056,7.75,72598.0,-7.83,-8.29,-8.29,0,*6E
1518066227.71,1057,7.75,72592.3,-7.83,-8.25,-8.25,0,*6F
1518066228.9,1058,7.75,72598.8,-7.83,-8.29,-8.29,0,*60
1518066230.1,1059,7.75,72598.5,-7.83,-8.21,-8.21,0,*61
1518066231.3,1060,7.75,72594.0,-7.83,-8.25,-8.29,0,*67
1518066232.5,1061,7.75,72598.5,-7.83,-8.29,-8.37,0,*65
1518066233.7,1062,7.75,72598.3,-7.83,-8.29,-8.25,0,*65
1518066234.89,1063,7.75,72602.8,-7.83,-8.25,-8.29,0,*64
1518066236.09,1064,7.75,72596.3,-7.83,-8.25,-8.29,0,*63
1518066237.29,1065,7.75,72594.3,-7.83,-8.29,-8.29,0,*6E
1518066238.48,1066,7.75,72598.3,-7.83,-8.29,-8.29,0,*6D
1518066239.7,1067,7.75,72602.3,-7.81,-8.25,-8.33,0,*69
1518066240.89,1068,7.75,72598.3,-7.83,-8.29,-8.25,0,*6F
1518066242.09,1069,7.75,72594.3,-7.83,-8.29,-8.29,0,*62
1518066243.28,1070,7.75,72598.0,-7.83,-8.29,-8.25,0,*66
1518066244.48,1071,7.75,72596.8,-7.83,-8.29,-8.25,0,*67
1518066245.67,1072,7.75,72596.3,-7.83,-8.29,-8.25,0,*64
1518066246.87,1073,7.75,72596.0,-7.83,-8.29,-8.25,0,*65
1518066248.06,1074,7.75,72596.3,-7.83,-8.29,-8.29,0,*6E
1518066249.26,1075,7.75,72596.0,-7.83,-8.29,-8.25,0,*63
1518066250.48,1076,7.75,72592.5,-7.81,-8.25,-8.21,0,*6A
1518066251.68,1077,7.75,72598.0,-7.83,-8.25,-8.25,0,*6D
1518066252.9,1078,7.75,72596.0,-7.81,-8.21,-8.25,0,*64
1518066254.09,1079,7.75,72594.5,-7.83,-8.29,-8.25,0,*6F
1518066255.31,1080,7.75,72596.3,-7.81,-8.25,-8.25,0,*67
1518066256.53,1081,7.75,72594.0,-7.81,-8.25,-8.25,0,*66
1518066257.75,1082,7.75,72596.3,-7.81,-8.25,-8.21,0,*61
1518066258.97,1083,7.75,72592.3,-7.81,-8.25,-8.29,0,*68
1518066260.17,1084,7.75,72596.0,-7.83,-8.25,-8.29,0,*6D
1518066261.39,1085,7.75,72596.0,-7.81,-8.29,-8.21,0,*6A
1518066262.61,1086,7.75,72598.5,-7.81,-8.21,-8.21,0,*61
1518066263.83,1087,7.75,72594.3,-7.81,-8.25,-8.21,0,*64
1518066265.02,1088,7.69,72592.0,-7.83,-8.29,-8.29,0,*6D
1518066266.24,1089,7.75,72598.0,-7.81,-8.21,-8.25,0,*6A
1518066267.43,1090,7.75,72598.3,-7.83,-8.29,-8.25,0,*68
1518066268.66,1091,7.75,72592.3,-7.81,-8.25,-8.21,0,*63
1518066269.85,1092,7.75,72596.0,-7.83,-8.29,-8.25,0,*6A
1518066271.07,1093,7.75,72594.0,-7.81,-8.21,-8.21,0,*65
1518066272.29,1094,7.75,72596.8,-7.81,-8.25,-8.25,0,*62
1518066273.49,1095,7.75,72594.8,-7.83,-8.29,-8.29,0,*61
1518066274.71,1096,7.75,72592.3,-7.81,-8.25,-8.21,0,*64
1518066275.93,1097,7.75,72592.8,-7.81,-8.25,-8.21,0,*65
1518066277.15,1098,7.75,72596.3,-7.81,-8.25,-8.25,0,*6E
1518066278.37,1099,7.75,72596.5,-7.81,-8.25,-8.25,0,*6F
1518066279.57,1100,7.75,72596.3,-7.83,-8.25,-8.29,0,*60
1518066280.78,1101,7.75,72598.3,-7.81,-8.21,-8.25,0,*6B
1518066281.98,1102,7.75,72598.0,-7.83,-8.29,-8.29,0,*6E
1518066283.2,1103,7.75,72596.3,-7.81,-8.25,-8.25,0,*6D
1518066284.42,1104,7.75,72596.8,-7.81,-8.25,-8.21,0,*6E
1518066285.62,1105,7.75,72594.5,-7.83,-8.29,-8.37,0,*66
1518066286.84,1106,7.75,72596.8,-7.81,-8.25,-8.25,0,*68
1518066288.03,1107,7.75,72596.8,-7.83,-8.29,-8.29,0,*6B
1518066289.25,1108,7.75,72598.8,-7.81,-8.21,-8.25,0,*62
1518066290.47,1109,7.75,72598.0,-7.81,-8.25,-8.21,0,*63
1518066291.69,1110,7.75,72596.3,-7.81,-8.25,-8.25,0,*6F
1518066292.91,1111,7.75,72594.3,-7.81,-8.25,-8.25,0,*6E
1518066294.11,1112,7.75,72598.5,-7.83,-8.29,-8.25,0,*63
1518066295.32,1113,7.75,72592.0,-7.81,-8.25,-8.25,0,*6C
1518066296.54,1114,7.75,72594.0,-7.81,-8.25,-8.25,0,*6B
1518066297.76,1115,7.75,72594.0,-7.81,-8.25,-8.25,0,*6A
1518066298.96,1116,7.75,72596.5,-7.83,-8.29,-8.25,0,*67
1518066300.15,1117,7.75,72596.0,-7.83,-8.29,-8.29,0,*6A
1518066301.37,1118,7.75,72594.0,-7.81,-8.25,-8.25,0,*67
1518066302.59,1119,7.75,72596.5,-7.81,-8.21,-8.25,0,*62
1518066303.78,1120,7.75,72594.5,-7.79,-8.25,-8.25,0,*6B
1518066304.97,1121,7.75,72598.5,-7.79,-8.25,-8.21,0,*6E
1518066306.16,1122,7.75,72594.3,-7.79,-8.21,-8.25,0,*6D
1518066307.38,1123,7.75,72598.8,-7.81,-8.25,-8.25,0,*6F
1518066308.6,1124,7.75,72594.5,-7.81,-8.25,-8.25,0,*68
1518066309.79,1125,7.75,72598.0,-7.79,-8.33,-8.21,0,*6D
1518066310.99,1126,7.75,72594.0,-7.83,-8.25,-8.29,0,*64
1518066312.21,1127,7.75,72594.5,-7.81,-8.25,-8.25,0,*6B
1518066313.4,1128,7.69,72594.8,-7.79,-8.21,-8.25,0,*67
1518066314.61,1129,7.75,72596.5,-7.81,-8.25,-8.25,0,*65
1518066315.83,1130,7.75,72598.3,-7.81,-8.21,-8.25,0,*69
1518066317.05,1131,7.75,72592.3,-7.81,-8.25,-8.21,0,*68
1518066318.28,1132,7.75,72594.8,-7.81,-8.25,-8.21,0,*6B
1518066319.49,1133,7.75,72594.8,-7.81,-8.25,-8.25,0,*6E
1518066320.71,1134,7.75,72596.8,-7.81,-8.25,-8.21,0,*6D
1518066321.9,1135,7.75,72594.3,-7.79,-8.33,-8.25,0,*68
1518066323.09,1136,7.75,72598.5,-7.79,-8.25,-8.25,0,*6C
1518066324.28,1137,7.75,72592.5,-7.79,-8.25,-8.25,0,*6D
1518066325.5,1138,7.75,72596.3,-7.81,-8.25,-8.25,0,*65
1518066326.72,1139,7.75,72596.5,-7.81,-8.25,-8.25,0,*64
1518066327.91,1140,7.75,72592.3,-7.79,-8.25,-8.25,0,*6D
1518066329.1,1141,7.75,72598.5,-7.79,-8.25,-8.25,0,*6C
1518066330.32,1142,7.75,72594.5,-7.81,-8.25,-8.25,0,*68
1518066331.54,1143,7.75,72598.8,-7.81,-8.21,-8.33,0,*6A
1518066332.76,1144,7.75,72598.0,-7.81,-8.25,-8.21,0,*6A
1518066333.98,1145,7.75,72596.8,-7.81,-8.25,-8.21,0,*6B
1518066335.16,1146,7.75,72598.0,-7.79,-8.33,-8.25,0,*6C
1518066336.36,1147,7.75,72596.0,-7.79,-8.25,-8.25,0,*6A
1518066337.55,1148,7.75,72596.3,-7.79,-8.25,-8.21,0,*61
1518066338.75,1149,7.75,72594.3,-7.79,-8.25,-8.21,0,*60
1518066339.94,1150,7.75,72598.5,-7.79,-8.21,-8.25,0,*68
1518066341.13,1151,7.75,72598.8,-7.79,-8.25,-8.25,0,*6D
1518066342.32,1152,7.75,72594.5,-7.79,-8.21,-8.25,0,*6A
1518066343.51,1153,7.75,72594.0,-7.79,-8.25,-8.25,0,*6F
1518066344.7,1154,7.75,72598.0,-7.79,-8.25,-8.25,0,*68
1518066345.9,1155,7.75,72592.5,-7.79,-8.25,-8.21,0,*6D
1518066347.08,1156,7.75,72592.8,-7.79,-8.21,-8.25,0,*6E
1518066348.28,1157,7.75,72594.5,-7.79,-8.25,-8.25,0,*6B
1518066349.47,1158,7.75,72594.0,-7.79,-8.25,-8.21,0,*60
1518066350.66,1159,7.75,72594.3,-7.79,-8.21,-8.25,0,*61
1518066351.85,1160,7.75,72594.5,-7.79,-8.25,-8.21,0,*6B
1518066353.04,1161,7.75,72594.3,-7.79,-8.25,-8.33,0,*69
1518066354.23,1162,7.75,72598.0,-7.79,-8.21,-8.25,0,*69
1518066355.42,1163,7.75,72598.0,-7.79,-8.25,-8.25,0,*6C
1518066356.61,1164,7.75,72598.8,-7.79,-8.21,-8.25,0,*6F
1518066357.83,1165,7.75,72592.3,-7.77,-8.29,-8.17,0,*69
1518066359.02,1166,7.75,72594.5,-7.79,-8.21,-8.25,0,*6D
1518066360.23,1167,7.75,72592.8,-7.77,-8.29,-8.21,0,*6E
1518066361.42,1168,7.75,72592.3,-7.79,-8.21,-8.21,0,*67
1518066362.61,1169,7.75,72594.8,-7.79,-8.29,-8.21,0,*6E
1518066363.81,1170,7.75,72594.3,-7.79,-8.25,-8.25,0,*6E
1518066365.0,1171,7.75,72596.0,-7.79,-8.25,-8.21,0,*6B
1518066366.19,1172,7.75,72594.8,-7.79,-8.21,-8.25,0,*68
1518066367.41,1173,7.75,72592.8,-7.77,-8.21,-8.21,0,*63
1518066368.6,1174,7.75,72596.3,-7.79,-8.25,-8.21,0,*6E
1518066369.79,1175,7.75,72592.0,-7.79,-8.25,-8.25,0,*6B
1518066370.99,1176,7.75,72596.8,-7.79,-8.25,-8.21,0,*6C
1518066372.17,1177,7.75,72594.3,-7.79,-8.25,-8.33,0,*6E
1518066373.36,1178,7.75,72596.0,-7.79,-8.29,-8.17,0,*6B
1518066374.56,1179,7.75,72592.3,-7.79,-8.25,-8.25,0,*67
1518066375.77,1180,7.75,72598.3,-7.77,-8.21,-8.21,0,*6F
1518066376.96,1181,7.75,72598.8,-7.79,-8.21,-8.25,0,*64
1518066378.15,1182,7.75,72598.3,-7.79,-8.25,-8.33,0,*64
1518066379.34,1183,7.75,72594.5,-7.79,-8.25,-8.21,0,*66
1518066380.53,1184,7.69,72590.8,-7.79,-8.25,-8.25,0,*65
1518066381.72,1185,7.75,72592.0,-7.79,-8.21,-8.25,0,*60
1518066382.94,1186,7.75,72596.0,-7.77,-8.17,-8.17,0,*69
1518066384.13,1187,7.75,72594.3,-7.79,-8.25,-8.25,0,*66
1518066385.33,1188,7.75,72592.8,-7.79,-8.25,-8.21,0,*6D
1518066386.54,1189,7.75,72596.5,-7.77,-8.21,-8.21,0,*66
1518066387.76,1190,7.75,72594.3,-7.77,-8.17,-8.21,0,*6B
1518066388.97,1191,7.75,72594.0,-7.77,-8.21,-8.21,0,*6F
1518066390.19,1192,7.75,72598.3,-7.77,-8.21,-8.21,0,*6C
1518066391.38,1193,7.75,72598.3,-7.79,-8.25,-8.25,0,*63
1518066392.57,1194,7.69,72590.8,-7.79,-8.33,-8.21,0,*67
1518066393.79,1195,7.75,72598.0,-7.77,-8.29,-8.21,0,*63
1518066394.98,1196,7.75,72596.8,-7.79,-8.21,-8.21,0,*66
1518066396.19,1197,7.75,72594.0,-7.77,-8.21,-8.29,0,*61
1518066397.41,1198,7.75,72596.3,-7.77,-8.17,-8.25,0,*67
1518066398.62,1199,7.75,72596.3,-7.77,-8.21,-8.17,0,*62
1518066399.83,1200,7.75,72596.0,-7.77,-8.21,-8.17,0,*61
1518066401.02,1201,7.75,72596.8,-7.79,-8.33,-8.25,0,*6C
1518066402.23,1202,7.75,72596.0,-7.77,-8.21,-8.21,0,*66
1518066403.42,1203,7.75,72598.3,-7.79,-8.25,-8.25,0,*69
1518066404.64,1204,7.75,72592.5,-7.77,-8.17,-8.21,0,*65
1518066405.86,1205,7.75,72596.0,-7.77,-8.21,-8.21,0,*61
1518066407.07,1206,7.75,72592.8,-7.77,-8.21,-8.21,0,*62
1518066408.29,1207,7.75,72594.3,-7.77,-8.21,-8.21,0,*63
1518066409.5,1208,7.75,72596.5,-7.77,-8.21,-8.29,0,*64
1518066410.72,1209,7.75,72592.8,-7.77,-8.17,-8.21,0,*68
1518066411.93,1210,7.75,72592.0,-7.77,-8.21,-8.17,0,*60
1518066413.15,1211,7.75,72596.5,-7.77,-8.21,-8.21,0,*64
1518066414.36,1212,7.75,72592.8,-7.77,-8.21,-8.21,0,*67
1518066415.56,1213,7.75,72592.5,-7.79,-8.25,-8.21,0,*6C
1518066416.75,1214,7.75,72596.8,-7.79,-8.25,-8.21,0,*6B
1518066417.97,1215,7.75,72594.8,-7.77,-8.21,-8.29,0,*68
1518066419.16,1216,7.75,72594.8,-7.79,-8.25,-8.25,0,*6D
1518066420.37,1217,7.75,72594.5,-7.77,-8.21,-8.21,0,*62
1518066421.59,1218,7.75,72596.8,-7.77,-8.21,-8.17,0,*68
1518066422.8,1219,7.75,72592.5,-7.77,-8.21,-8.21,0,*6C
1518066424.02,1220,7.75,72592.8,-7.77,-8.21,-8.21,0,*66
1518066425.21,1221,7.75,72596.8,-7.79,-8.25,-8.25,0,*69
1518066426.43,1222,7.75,72592.5,-7.77,-8.17,-8.25,0,*65
1518066427.64,1223,7.75,72596.5,-7.77,-8.29,-8.21,0,*6D
1518066428.86,1224,7.75,72592.5,-7.77,-8.21,-8.21,0,*62
1518066430.07,1225,7.75,72592.8,-7.77,-8.21,-8.21,0,*63
1518066431.28,1226,7.75,72596.0,-7.77,-8.21,-8.29,0,*68
1518066432.5,1227,7.75,72594.8,-7.77,-8.21,-8.17,0,*64
1518066433.71,1228,7.75,72592.5,-7.77,-8.29,-8.17,0,*63
1518066434.92,1229,7.75,72594.0,-7.77,-8.29,-8.21,0,*67
1518066436.14,1230,7.75,72592.3,-7.77,-8.29,-8.21,0,*6F
1518066437.35,1231,7.75,72592.8,-7.77,-8.21,-8.17,0,*63
1518066438.56,1232,7.75,72594.5,-7.77,-8.21,-8.17,0,*60
1518066439.78,1233,7.75,72594.0,-7.77,-8.21,-8.21,0,*64
1518066441.0,1234,7.75,72592.8,-7.77,-8.21,-8.21,0,*63
1518066442.21,1235,7.75,72596.5,-7.77,-8.29,-8.17,0,*6F
1518066443.42,1236,7.75,72592.8,-7.77,-8.21,-8.21,0,*61
1518066444.64,1237,7.75,72594.8,-7.77,-8.21,-8.21,0,*60
1518066445.83,1238,7.75,72592.3,-7.75,-8.29,-8.21,0,*65
1518066447.05,1239,7.75,72592.8,-7.77,-8.17,-8.21,0,*6B
1518066448.27,1240,7.75,72594.8,-7.77,-8.21,-8.21,0,*60
1518066449.48,1241,7.75,72596.8,-7.77,-8.21,-8.17,0,*64
1518066450.69,1242,7.75,72598.5,-7.77,-8.29,-8.29,0,*62
1518066451.88,1243,7.75,72596.0,-7.75,-8.21,-8.21,0,*61
1518066453.08,1244,7.75,72596.5,-7.75,-8.29,-8.21,0,*6E
1518066454.29,1245,7.75,72594.5,-7.77,-8.21,-8.29,0,*6D
1518066455.48,1246,7.75,72594.8,-7.75,-8.21,-8.29,0,*6C
1518066456.67,1247,7.75,72598.3,-7.75,-8.17,-8.17,0,*65
1518066457.89,1248,7.75,72594.5,-7.77,-8.21,-8.21,0,*68
1518066459.1,1249,7.75,72598.8,-7.77,-8.17,-8.29,0,*64
1518066460.32,1250,7.75,72594.5,-7.77,-8.29,-8.21,0,*69
1518066461.53,1251,7.75,72592.5,-7.77,-8.29,-8.21,0,*68
1518066462.74,1252,7.75,72594.0,-7.77,-8.21,-8.17,0,*66
1518066463.96,1253,7.75,72594.5,-7.77,-8.29,-8.21,0,*6A
1518066465.17,1254,7.75,72596.3,-7.77,-8.29,-8.17,0,*68
1518066466.36,1255,7.75,72594.8,-7.75,-8.29,-8.21,0,*6E
1518066467.56,1256,7.75,72598.8,-7.75,-8.21,-8.21,0,*65
1518066468.77,1257,7.75,72592.8,-7.77,-8.21,-8.21,0,*66
1518066469.98,1258,7.75,72594.8,-7.77,-8.21,-8.17,0,*6C
1518066471.2,1259,7.75,72596.5,-7.77,-8.17,-8.21,0,*6D
1518066472.4,1260,7.75,72594.5,-7.75,-8.21,-8.21,0,*60
1518066473.59,1261,7.75,72594.3,-7.75,-8.21,-8.17,0,*64
1518066474.78,1262,7.75,72596.0,-7.75,-8.21,-8.29,0,*6A
1518066475.97,1263,7.75,72592.0,-7.75,-8.21,-8.21,0,*63
1518066477.16,1264,7.75,72594.8,-7.75,-8.21,-8.21,0,*64
1518066478.35,1265,7.75,72594.0,-7.75,-8.21,-8.21,0,*65
1518066479.55,1266,7.75,72592.0,-7.75,-8.21,-8.21,0,*66
1518066480.74,1267,7.75,72592.3,-7.75,-8.21,-8.21,0,*67
1518066481.93,1268,7.75,72594.3,-7.75,-8.21,-8.21,0,*68
1518066483.12,1269,7.75,72592.8,-7.75,-8.21,-8.17,0,*6C
1518066484.32,1270,7.75,72594.3,-7.75,-8.21,-8.21,0,*61
1518066485.5,1271,7.75,72596.0,-7.75,-8.21,-8.29,0,*68
1518066486.7,1272,7.75,72594.5,-7.75,-8.21,-8.29,0,*6B
1518066487.88,1273,7.75,72596.5,-7.75,-8.29,-8.17,0,*6F
1518066489.08,1274,7.75,72594.3,-7.75,-8.21,-8.21,0,*65
1518066490.27,1275,7.75,72596.0,-7.75,-8.21,-8.21,0,*64
1518066491.51,1276,7.75,72596.3,-7.73,-8.11,-8.17,0,*67
1518066492.71,1277,7.75,72594.3,-7.75,-8.21,-8.21,0,*66
1518066493.9,1278,7.75,72596.3,-7.75,-8.21,-8.21,0,*69
1518066495.09,1279,7.75,72596.5,-7.75,-8.29,-8.21,0,*60
1518066496.28,1280,7.75,72592.8,-7.75,-8.21,-8.29,0,*66
1518066497.47,1281,7.75,72592.3,-7.75,-8.21,-8.21,0,*6F
1518066498.67,1282,7.75,72592.3,-7.75,-8.21,-8.21,0,*6C
1518066499.86,1283,7.75,72596.8,-7.75,-8.29,-8.21,0,*65
1518066501.07,1284,7.75,72592.8,-7.73,-8.17,-8.17,0,*6C
1518066502.27,1285,7.75,72594.5,-7.75,-8.21,-8.21,0,*6B
1518066503.46,1286,7.75,72590.8,-7.75,-8.21,-8.21,0,*68
1518066504.65,1287,7.75,72594.8,-7.75,-8.29,-8.21,0,*61
1518066505.87,1288,7.75,72592.5,-7.73,-8.25,-8.17,0,*61
1518066507.06,1289,7.75,72592.3,-7.75,-8.29,-8.21,0,*6F
1518066508.25,1290,7.75,72592.8,-7.75,-8.21,-8.21,0,*6F
1518066509.47,1291,7.75,72596.5,-7.73,-8.25,-8.25,0,*68
1518066510.68,1292,7.75,72594.8,-7.73,-8.25,-8.17,0,*6A
1518066511.93,1293,7.75,72592.5,-7.73,-8.25,-8.11,0,*6D
1518066513.12,1294,7.75,72592.5,-7.75,-8.21,-8.21,0,*6B
1518066514.31,1295,7.75,72592.5,-7.75,-8.17,-8.21,0,*6F
1518066515.51,1296,7.75,72592.5,-7.75,-8.17,-8.21,0,*6C
1518066516.72,1297,7.75,72598.8,-7.73,-8.17,-8.17,0,*6E